Flag for Russia Weather past 2 weeks in Yekaterinburg, Russia

Now
57 °F

Sprinkles. Mostly cloudy.


Feels Like: 56 °F
Forecast: 53 / 63 °F
Wind: 6 mph from South

Location: Ekaterinburg

Current Time: Jul 6, 2015 at 1:30:01 AM

Latest Report: Jul 6, 2015 at 1:00 AM


Visibility: N/A

Pressure: 29.50 "Hg

Humidity: 88%

Dew point: 54 °F

Location of YekaterinburgLocation

Historic Weather in Yekaterinburg — Graph

°F

Yekaterinburg temperature yesterday

Maximum temperature yesterday: 63 °F (at 12:30 PM)
Minimum temperature yesterday: 45 °F (at 12:00 AM)
Average temperature yesterday: 55 °F

Past Weeks' High & Low Weather Summary

 TemperatureHumidityPressure
High93 °F (Jun 23, 3:30 PM)100% (Jun 21, 1:30 AM)30.15 "Hg (Jun 21, 1:30 AM)
Low45 °F (Jul 4, 5:00 AM)32% (Jun 23, 4:00 PM)29.50 "Hg (Jul 6, 12:30 AM)
Average67 °F83%29.85 "Hg
* Reported Midnight between Jun 20 and Jun 21 — Jul 6 12:30 AM, Yekaterinburg, Weather by CustomWeather, © 2015

Note: Actual official high and low records may vary slightly from our data, if they occured in-between our weather recording intervals... More about our weather records

Advertising

Yekaterinburg weather history for previous 24 hours

 ConditionsComfort  
Time TempWeatherWind HumidityBarometerVisibility
12:30 AM
Mon, Jul 6
57 °FOvercast.3 mph88%29.50 "HgN/A
12:00 AM57 °FOvercast.6 mph88%29.53 "HgN/A
11:30 PM
Sun, Jul 5
57 °FOvercast.6 mph82%29.53 "HgN/A
11:00 PM57 °FOvercast.3 mph88%29.56 "HgN/A
10:30 PM57 °FOvercast.6 mph82%29.59 "HgN/A
10:00 PM57 °FMostly cloudy.6 mph82%29.59 "HgN/A
9:30 PM59 °FMostly cloudy.3 mph77%29.62 "HgN/A
9:00 PM59 °FMostly cloudy.3 mph77%29.62 "HgN/A
8:30 PM59 °FMostly cloudy.6 mph77%29.62 "HgN/A
8:00 PM59 °FMostly cloudy.3 mph77%29.65 "HgN/A
7:30 PM59 °FMostly cloudy.6 mph77%29.65 "HgN/A
7:00 PM61 °FMostly cloudy.3 mph72%29.68 "HgN/A
6:30 PM61 °FSprinkles. Mostly cloudy.3 mph68%29.68 "HgN/A
6:00 PM61 °FSprinkles. Mostly cloudy.6 mph68%29.68 "HgN/A
5:30 PM61 °FMostly cloudy.8 mph68%29.68 "HgN/A
5:00 PM63 °FBroken clouds.10 mph59%29.71 "HgN/A
4:30 PM63 °FBroken clouds.8 mph68%29.71 "HgN/A
4:00 PM59 °FSprinkles. Broken clouds.6 mph72%29.71 "HgN/A
3:30 PM61 °FBroken clouds.8 mph63%29.71 "HgN/A
3:00 PM63 °FBroken clouds.8 mph59%29.71 "HgN/A
2:30 PM61 °FBroken clouds.10 mph63%29.74 "HgN/A
2:00 PM63 °FPartly sunny.13 mph56%29.74 "HgN/A
1:30 PM61 °FPartly sunny.15 mph59%29.74 "HgN/A
1:00 PM61 °FPartly sunny.13 mph55%29.74 "HgN/A
12:30 PM63 °FPartly sunny.10 mph56%29.74 "HgN/A
12:00 PM61 °FSunny.13 mph55%29.74 "Hg10 mi
11:30 AM59 °FPassing clouds.8 mph51%29.74 "HgN/A
11:00 AM59 °FSunny.15 mph51%29.74 "Hg10 mi
10:30 AM59 °FSunny.15 mph55%29.74 "Hg10 mi
10:00 AM57 °FBroken clouds.8 mph67%29.74 "HgN/A
9:30 AM55 °FSunny.8 mph77%29.74 "Hg10 mi
8:30 AM52 °FSunny.8 mph82%29.74 "Hg10 mi
8:00 AM52 °FSunny.8 mph82%29.74 "Hg10 mi
7:30 AM52 °FSunny.10 mph82%29.74 "Hg10 mi
7:00 AM52 °FSunny.10 mph82%29.74 "Hg10 mi
6:30 AM50 °FSunny.8 mph88%29.74 "Hg10 mi
6:00 AM48 °FSunny.8 mph94%29.74 "Hg10 mi
5:30 AM48 °FSunny.10 mph94%29.71 "Hg10 mi
5:00 AM46 °FClear.6 mph93%29.71 "Hg10 mi
4:30 AM46 °FClear.6 mph93%29.71 "Hg10 mi
4:00 AM46 °FClear.8 mph93%29.71 "Hg10 mi
3:30 AM46 °FClear.8 mph93%29.71 "Hg10 mi
3:00 AM46 °FClear.6 mph93%29.71 "Hg10 mi
2:30 AM45 °FClear.1 mph93%29.71 "Hg10 mi
2:00 AM45 °FClear.3 mph93%29.71 "Hg10 mi
1:30 AM45 °FClear.1 mph93%29.71 "Hg10 mi
1:00 AM46 °FClear.1 mph87%29.71 "Hg10 mi
Weather by CustomWeather, © 2015

See weather overviewHow to use our weather pages